Tillbaka till svenska Fidonet
English   Information   Debug  
FILM   0/18
FNEWS_PUBLISH   4983
FN_SYSOP   42232
FN_SYSOP_OLD1   71952
FTP_FIDO   0/2
FTSC_PUBLIC   0/13976
FUNNY   0/4886
GENEALOGY.EUR   0/71
GET_INFO   105
GOLDED   0/408
HAM   3728/16712
HOLYSMOKE   0/6791
HOT_SITES   0/1
HTMLEDIT   0/71
HUB203   466
HUB_100   264
HUB_400   39
HUMOR   0/29
IC   0/2851
INTERNET   0/424
INTERUSER   0/3
IP_CONNECT   719
JAMNNTPD   0/233
JAMTLAND   0/47
KATTY_KORNER   0/41
LAN   0/16
LINUX-USER   0/19
LINUXHELP   0/1155
LINUX   0/22382
LINUX_BBS   0/957
mail   18.68
mail_fore_ok   249
MENSA   0/341
MODERATOR   0/102
MONTE   0/992
MOSCOW_OKLAHOMA   0/1245
MUFFIN   0/783
MUSIC   0/321
N203_STAT   938
N203_SYSCHAT   313
NET203   321
NET204   69
NET_DEV   0/10
NORD.ADMIN   0/101
NORD.CHAT   0/2572
NORD.FIDONET   189
NORD.HARDWARE   0/28
NORD.KULTUR   0/114
NORD.PROG   0/32
NORD.SOFTWARE   0/88
NORD.TEKNIK   0/58
NORD   0/453
OCCULT_CHAT   0/93
OS2BBS   0/787
OS2DOSBBS   0/580
OS2HW   0/42
OS2INET   0/37
OS2LAN   0/134
OS2PROG   0/36
OS2REXX   0/113
OS2USER-L   207
OS2   0/4831
OSDEBATE   0/18996
PASCAL   0/490
PERL   0/457
PHP   0/45
POINTS   0/405
POLITICS   0/29554
POL_INC   0/14731
PSION   103
R20_ADMIN   1133
R20_AMATORRADIO   0/2
R20_BEST_OF_FIDONET   16
R20_CHAT   0/897
R20_DEPP   0/3
R20_DEV   400
R20_ECHO2   1889
R20_ECHOPRES   0/35
R20_ESTAT   0/719
R20_FIDONETPROG...
...RAM.MYPOINT
  0/2
R20_FIDONETPROGRAM   0/22
R20_FIDONET   0/248
R20_FILEFIND   0/24
R20_FILEFOUND   0/22
R20_HIFI   0/3
R20_INFO2   3781
R20_INTERNET   0/12940
R20_INTRESSE   0/60
R20_INTR_KOM   0/99
R20_KANDIDAT.CHAT   42
R20_KANDIDAT   28
R20_KOM_DEV   112
R20_KONTROLL   0/13360
R20_KORSET   0/18
R20_LOKALTRAFIK   0/24
R20_MODERATOR   0/1852
R20_NC   76
R20_NET200   245
R20_NETWORK.OTH...
...ERNETS
  0/13
R20_OPERATIVSYS...
...TEM.LINUX
  0/44
R20_PROGRAMVAROR   0/1
R20_REC2NEC   534
R20_SFOSM   0/341
R20_SF   0/108
R20_SPRAK.ENGLISH   0/1
R20_SQUISH   107
R20_TEST   2
R20_WORST_OF_FIDONET   20
RAR   0/9
RA_MULTI   106
RA_UTIL   0/162
REGCON.EUR   0/2069
REGCON   0/13
SCIENCE   0/1206
SF   0/239
SHAREWARE_SUPPORT   0/5146
SHAREWRE   0/14
SIMPSONS   0/169
STATS_OLD1   0/2539.065
STATS_OLD2   0/2530
STATS_OLD3   0/2395.095
STATS_OLD4   0/1692.25
SURVIVOR   0/495
SYSOPS_CORNER   0/3
SYSOP   0/84
TAGLINES   0/112
TEAMOS2   0/4530
TECH   0/2617
TEST.444   0/105
TRAPDOOR   0/19
TREK   0/755
TUB   0/290
UFO   0/40
UNIX   0/1316
USA_EURLINK   0/102
USR_MODEMS   0/1
VATICAN   0/2740
VIETNAM_VETS   0/14
VIRUS   0/378
VIRUS_INFO   0/201
VISUAL_BASIC   0/473
WHITEHOUSE   0/5187
WIN2000   0/101
WIN32   0/30
WIN95   0/4291
WIN95_OLD1   0/70272
WINDOWS   0/1517
WWB_SYSOP   0/419
WWB_TECH   0/810
ZCC-PUBLIC   0/1
ZEC   4

 
4DOS   0/134
ABORTION   0/7
ALASKA_CHAT   0/506
ALLFIX_FILE   0/1313
ALLFIX_FILE_OLD1   0/7997
ALT_DOS   0/152
AMATEUR_RADIO   0/1039
AMIGASALE   0/14
AMIGA   0/331
AMIGA_INT   0/1
AMIGA_PROG   0/20
AMIGA_SYSOP   0/26
ANIME   0/15
ARGUS   0/924
ASCII_ART   0/340
ASIAN_LINK   0/651
ASTRONOMY   0/417
AUDIO   0/92
AUTOMOBILE_RACING   0/105
BABYLON5   0/17862
BAG   135
BATPOWER   266/361
BBBS.ENGLISH   0/382
BBSLAW   0/109
BBS_ADS   0/5290
BBS_INTERNET   0/507
BIBLE   0/3563
BINKD   0/1119
BINKLEY   0/215
BLUEWAVE   0/2173
CABLE_MODEMS   0/25
CBM   0/46
CDRECORD   0/66
CDROM   0/20
CLASSIC_COMPUTER   0/378
COMICS   0/15
CONSPRCY   0/899
COOKING   42003
COOKING_OLD1   0/24719
COOKING_OLD2   0/40862
COOKING_OLD3   0/37489
COOKING_OLD4   0/35496
COOKING_OLD5   9370
C_ECHO   0/189
C_PLUSPLUS   0/31
DIRTY_DOZEN   0/201
DOORGAMES   0/2333
DOS_INTERNET   0/196
duplikat   6102
ECHOLIST   0/18295
EC_SUPPORT   0/318
ELECTRONICS   0/359
ELEKTRONIK.GER   1534
ENET.LINGUISTIC   0/13
ENET.POLITICS   0/4
ENET.SOFT   0/11701
ENET.SYSOP   34332
ENET.TALKS   0/32
ENGLISH_TUTOR   0/2000
EVOLUTION   0/1335
FDECHO   0/217
FDN_ANNOUNCE   0/7068
FIDONEWS   25122
FIDONEWS_OLD1   0/49742
FIDONEWS_OLD2   0/35949
FIDONEWS_OLD3   0/30874
FIDONEWS_OLD4   0/37224
FIDO_SYSOP   12973
FIDO_UTIL   0/180
FILEFIND   0/209
FILEGATE   0/212
Möte HAM, 16712 texter
 lista första sista föregående nästa
Text 2565, 746 rader
Skriven 2008-10-16 22:00:24 av Amsat List (1:323/120.0)
Ärende: [keps]  orb08290.amsa
=============================
[keps]  orb08290.amsa

Return-Path: <keps-bounces@amsat.org>
X-Rcpt: craig.healy@chowda.com
X-UIDL: 1224206413.41810

SB KEPS @ AMSAT  $ORB08290.O
Orbital Elements  08290.OSCAR

HR AMSAT ORBITAL ELEMENTS FOR OSCAR SATELLITES
FROM WA5QGD FORT WORTH,TX October 16, 2008
Send Subscribe/unsubscribe to KEPS at 
http://www.amsat.org/mailman/listinfo/keps
BID: ORB08290.O
TO ALL RADIO AMATEURS BT

Satellite: AO-07
Catalog number: 07530
Epoch time:      08289.64175131
Element set:    0304
Inclination:      101.4565 deg
RA of node:       317.0655 deg
Eccentricity:    0.0011965
Arg of perigee:   027.9906 deg
Mean anomaly:     332.1803 deg
Mean motion:   12.53574328 rev/day
Decay rate:       -2.7e-07 rev/day^2
Epoch rev:           55207
Checksum:              288

Satellite: AO-10
Catalog number: 14129
Epoch time:      08288.62994557
Element set:    0575
Inclination:      026.0324 deg
RA of node:       190.8569 deg
Eccentricity:    0.5960966
Arg of perigee:   165.1097 deg
Mean anomaly:     225.7390 deg
Mean motion:   02.05868818 rev/day
Decay rate:       -7.3e-07 rev/day^2
Epoch rev:           19056
Checksum:              350

Satellite: UO-11
Catalog number: 14781
Epoch time:      08289.69171038
Element set:     788
Inclination:      098.1431 deg
RA of node:       325.4554 deg
Eccentricity:    0.0009904
Arg of perigee:   049.4580 deg
Mean anomaly:     310.7467 deg
Mean motion:   14.79670479 rev/day
Decay rate:       3.03e-06 rev/day^2
Epoch rev:           32167
Checksum:              331

Satellite: RS-15
Catalog number: 23439
Epoch time:      08289.98924220
Element set:    0221
Inclination:      064.8180 deg
RA of node:       299.7079 deg
Eccentricity:    0.0145864
Arg of perigee:   099.4685 deg
Mean anomaly:     262.2759 deg
Mean motion:   11.27552397 rev/day
Decay rate:       -3.9e-07 rev/day^2
Epoch rev:           56858
Checksum:              365

Satellite: FO-29
Catalog number: 24278
Epoch time:      08289.73753739
Element set:    0887
Inclination:      098.5762 deg
RA of node:       190.1992 deg
Eccentricity:    0.0349753
Arg of perigee:   263.4948 deg
Mean anomaly:     092.6266 deg
Mean motion:   13.52939451 rev/day
Decay rate:       -4.4e-07 rev/day^2
Epoch rev:           60069
Checksum:              377

Satellite: SO-33
Catalog number: 25509
Epoch time:      08290.53369387
Element set:     303
Inclination:      031.4344 deg
RA of node:       350.2118 deg
Eccentricity:    0.0354409
Arg of perigee:   008.1174 deg
Mean anomaly:     352.4993 deg
Mean motion:   14.28227952 rev/day
Decay rate:        8.1e-07 rev/day^2
Epoch rev:           52097
Checksum:              301

Satellite: AO-40
Catalog number: 26609
Epoch time:      08289.79980320
Element set:     135
Inclination:      007.9293 deg
RA of node:       054.8179 deg
Eccentricity:    0.7938082
Arg of perigee:   134.1027 deg
Mean anomaly:     327.8138 deg
Mean motion:   01.25585604 rev/day
Decay rate:      -2.98e-06 rev/day^2
Epoch rev:            3655
Checksum:              337

Satellite: VO-52
Catalog number: 28650
Epoch time:      08289.76420943
Element set:    0058
Inclination:      097.7773 deg
RA of node:       352.9830 deg
Eccentricity:    0.0028188
Arg of perigee:   106.7629 deg
Mean anomaly:     253.6671 deg
Mean motion:   14.81510003 rev/day
Decay rate:       4.52e-06 rev/day^2
Epoch rev:           18645
Checksum:              329

Satellite: PO-63
Catalog number: 29712
Epoch time:      08290.35944215
Element set:     885
Inclination:      097.8629 deg
RA of node:       346.1960 deg
Eccentricity:    0.0014229
Arg of perigee:   352.7678 deg
Mean anomaly:     007.3326 deg
Mean motion:   14.80297572 rev/day
Decay rate:       6.56e-06 rev/day^2
Epoch rev:            9539
Checksum:              348

/EX
SB KEPS @ AMSAT  $ORB08290.D
Orbital Elements  08290.MICROS

HR AMSAT ORBITAL ELEMENTS FOR THE MICROSATS
FROM WA5QGD FORT WORTH,TX October 16, 2008
Send Subscribe/unsubscribe to KEPS at 
http://www.amsat.org/mailman/listinfo/keps
BID: ORB08290.D
TO ALL RADIO AMATEURS BT

Satellite: AO-16
Catalog number: 20439
Epoch time:      08289.47834660
Element set:    0443
Inclination:      098.2459 deg
RA of node:       263.4828 deg
Eccentricity:    0.0010744
Arg of perigee:   173.9871 deg
Mean anomaly:     186.1441 deg
Mean motion:   14.31805219 rev/day
Decay rate:        1.1e-07 rev/day^2
Epoch rev:           97813
Checksum:              323

Satellite: LO-19
Catalog number: 20442
Epoch time:      08289.85508807
Element set:     364
Inclination:      098.2132 deg
RA of node:       271.9982 deg
Eccentricity:    0.0011890
Arg of perigee:   170.7349 deg
Mean anomaly:     189.4061 deg
Mean motion:   14.32042946 rev/day
Decay rate:        1.2e-07 rev/day^2
Epoch rev:           97834
Checksum:              325

Satellite: AO-27
Catalog number: 22825
Epoch time:      08289.82305243
Element set:      84
Inclination:      098.3998 deg
RA of node:       245.4109 deg
Eccentricity:    0.0007513
Arg of perigee:   265.3223 deg
Mean anomaly:     094.7098 deg
Mean motion:   14.29249349 rev/day
Decay rate:        5.7e-07 rev/day^2
Epoch rev:           78500
Checksum:              331

Satellite: IO-26
Catalog number: 22826
Epoch time:      08289.92607862
Element set:    0800
Inclination:      098.3930 deg
RA of node:       246.3665 deg
Eccentricity:    0.0008055
Arg of perigee:   262.1807 deg
Mean anomaly:     097.8461 deg
Mean motion:   14.29498748 rev/day
Decay rate:       -4.0e-08 rev/day^2
Epoch rev:           78511
Checksum:              341

